Time,TemperatureF,DewpointF,PressureIn,WindDirection,WindDirectionDegrees,WindSpeedMPH,WindSpeedGustMPH,Humidity,HourlyPrecipIn,Conditions,Clouds,dailyrainin,SolarRadiationWatts/m^2,SoftwareType,DateUTC
2013-08-02 00:00:00,65.0,64.0,30.09,SW,224,0.0,-999.0,97,-99.99,,,-99.99,0.030000,,2013-08-02 04:00:00,
2013-08-02 04:00:00,63.0,62.0,30.06,SW,226,0.0,-999.0,97,-99.99,,,-99.99,0.280000,,2013-08-02 08:00:00,
2013-08-02 04:54:00,63.0,62.0,30.06,SW,226,0.0,-999.0,97,-99.99,,,-99.99,0.280000,,2013-08-02 08:54:00,
2013-08-02 05:00:00,70.0,62.0,30.08,SW,228,1.0,-999.0,77,-99.99,,,-99.99,0.080000,,2013-08-02 09:00:00,
2013-08-02 05:53:00,70.0,62.0,30.08,SW,228,1.0,-999.0,77,-99.99,,,-99.99,0.080000,,2013-08-02 09:53:00,
2013-08-02 06:00:00,69.0,62.0,30.09,SSW,207,1.0,-999.0,78,-99.99,,,-99.99,0.020000,,2013-08-02 10:00:00,
2013-08-02 07:00:00,68.0,63.0,30.10,West,280,1.0,-999.0,85,-99.99,,,-99.99,8.170000,,2013-08-02 11:00:00,
2013-08-02 08:00:00,71.0,65.0,30.14,ESE,106,1.0,-999.0,83,-99.99,,,-99.99,138.800003,,2013-08-02 12:00:00,
2013-08-02 09:00:00,71.0,65.0,30.17,SSW,196,1.0,-999.0,82,-99.99,,,-99.99,178.399994,,2013-08-02 13:00:00,
2013-08-02 10:00:00,75.0,66.0,30.17,SSW,209,1.0,-999.0,72,-99.99,,,-99.99,365.899994,,2013-08-02 14:00:00,
2013-08-02 11:00:00,80.0,64.0,30.16,WSW,247,1.0,-999.0,59,-99.99,,,-99.99,625.500000,,2013-08-02 15:00:00,
2013-08-02 11:53:00,80.0,64.0,30.16,WSW,247,1.0,-999.0,59,-99.99,,,-99.99,625.500000,,2013-08-02 15:53:00,
2013-08-02 12:00:00,79.0,62.0,30.17,East,88,2.0,-999.0,55,-99.99,,,-99.99,772.000000,,2013-08-02 16:00:00,
2013-08-02 12:53:00,79.0,62.0,30.17,East,88,2.0,-999.0,55,-99.99,,,-99.99,772.000000,,2013-08-02 16:53:00,
2013-08-02 13:00:00,81.0,63.0,30.17,SSE,158,2.0,-999.0,54,-99.99,,,-99.99,889.000000,,2013-08-02 17:00:00,
2013-08-02 14:00:00,82.0,64.0,30.16,South,180,2.0,-999.0,54,-99.99,,,-99.99,880.000000,,2013-08-02 18:00:00,
2013-08-02 15:00:00,82.0,63.0,30.14,SSW,201,3.0,-999.0,52,-99.99,,,-99.99,825.000000,,2013-08-02 19:00:00,
2013-08-02 16:00:00,83.0,62.0,30.14,SW,215,2.0,-999.0,49,-99.99,,,-99.99,641.200012,,2013-08-02 20:00:00,
2013-08-02 16:52:00,83.0,62.0,30.14,SW,215,2.0,-999.0,49,-99.99,,,-99.99,641.200012,,2013-08-02 20:52:00,
2013-08-02 17:00:00,83.0,65.0,30.13,SW,219,3.0,-999.0,56,-99.99,,,-99.99,602.900024,,2013-08-02 21:00:00,
2013-08-02 18:00:00,81.0,69.0,30.13,WSW,238,2.0,-999.0,68,-99.99,,,-99.99,386.000000,,2013-08-02 22:00:00,
2013-08-02 19:00:00,78.0,70.0,30.12,West,277,0.0,-999.0,78,-99.99,,,-99.99,199.600006,,2013-08-02 23:00:00,
2013-08-02 19:53:00,78.0,70.0,30.12,West,277,0.0,-999.0,78,-99.99,,,-99.99,199.600006,,2013-08-02 23:53:00,
2013-08-02 20:00:00,73.0,69.0,30.13,NW,322,0.0,-999.0,88,-99.99,,,-99.99,55.750000,,2013-08-03 00:00:00,
2013-08-02 20:52:00,73.0,69.0,30.13,NW,322,0.0,-999.0,88,-99.99,,,-99.99,55.750000,,2013-08-03 00:52:00,
2013-08-02 21:00:00,70.0,67.0,30.14,NW,315,0.0,-999.0,92,-99.99,,,-99.99,3.350000,,2013-08-03 01:00:00,
2013-08-02 21:53:00,70.0,67.0,30.14,NW,315,0.0,-999.0,92,-99.99,,,-99.99,3.350000,,2013-08-03 01:53:00,
2013-08-02 22:00:00,68.0,67.0,30.16,NW,314,0.0,-999.0,95,-99.99,,,-99.99,0.000000,,2013-08-03 02:00:00,
2013-08-02 23:00:00,68.0,66.0,30.16,NW,304,0.0,-999.0,95,-99.99,,,-99.99,0.000000,,2013-08-03 03:00:00,